Location: Cruquius
(52.3348°N, 4.6319°E)
Time: 19:14:11
(UTC+00:00)

RESURS DK-1 - Pass Details

Date: 12 May 2021
Orbit: 553 x 564 km, 69.9° (Epoch: 21 June)

Event Time Altitude Azimuth Distance (km) Brightness Sun altitude
Rises 22:53:51 0° 327° (NNW) 2,767 7.1 -18.6°
Reaches altitude 10° 22:56:04 10° 327° (NNW) 1,868 6.0 -18.7°
Maximum altitude 23:00:15 88° 53° (NE) 572 2.3 -18.8°
Enters shadow 23:01:31 45° 146° (SE) 780 2.6 -18.8°
